Weather History for Adak, AK

Change the Weather History Date:

Thursday, February 13, 2014

  Actual Average Record
Temperature  
Mean Temperature 34 °F -  
Max Temperature 37 °F 37 °F 44 °F (1951)
Min Temperature 28 °F 26 °F 9 °F (1991)
Degree Days  
Heating Degree Days 32    
Moisture  
Dew Point 27 °F    
Average Humidity 77    
Maximum Humidity 86    
Minimum Humidity 58    
Precipitation  
Precipitation 0.01 in - - ()
Sea Level Pressure  
Sea Level Pressure 30.07 in    
Wind  
Wind Speed 17 mph (North)    
Max Wind Speed 29 mph    
Max Gust Speed 44 mph    
Visibility 8 miles    
Events      
Averages and records for this station are not official NWS values.
T = Trace of Precipitation, MM = Missing Value Source: NWS Daily Summary

Daily Weather History Graph

Daily Weather History Graph

Search for Another Location

Airport:

Trip Planner

Search our weather history database for the weather conditions in past years. The results will help you decide how hot, cold, wet, or windy it might be!

Date:

Astronomy

Feb. 13, 2014 Rise Set
Actual Time 9:04 AM HAST 6:57 PM HAST
Civil Twilight 8:29 AM HAST 7:32 PM HAST
Nautical Twilight 7:50 AM HAST 8:12 PM HAST
Astronomical Twilight 7:11 AM HAST 8:51 PM HAST
Moon 6:21 PM HAST (2/13) 8:06 AM HAST (2/13)
Length of Visible Light 11h 03m
Length of Day
9h 53m
Waxing Gibbous, 99% of the Moon is Illuminated
Feb 13
Waxing Gibbous
Feb 14
Full
Feb 22
Last Quarter
Feb 28
New
Mar 8
First Quarter

Hourly Weather History & Observations

Time (HAST) Temp. Windchill Dew Point Humidity Pressure Visibility Wind Dir Wind Speed Gust Speed Precip Events Conditions
12:16 AM 37.4 °F 25.9 °F 24.8 °F 60% 29.92 in 10.0 mi NW 25.3 mph 42.6 mph N/A   Scattered Clouds
12:36 AM 37.4 °F 25.6 °F 24.8 °F 60% 29.92 in 10.0 mi NW 26.5 mph 43.7 mph N/A   Scattered Clouds
12:56 AM 37.4 °F 26.4 °F 26.6 °F 65% 29.92 in 10.0 mi NW 23.0 mph 41.4 mph N/A   Mostly Cloudy
1:16 AM 35.6 °F 23.7 °F 26.6 °F 70% 29.91 in 10.0 mi NW 24.2 mph 38.0 mph N/A   Mostly Cloudy
1:36 AM 37.4 °F 25.2 °F 26.6 °F 65% 29.92 in 10.0 mi NNW 28.8 mph 38.0 mph N/A   Mostly Cloudy
1:56 AM 35.6 °F 22.7 °F 28.4 °F 75% 29.92 in 8.0 mi NNW 28.8 mph 36.8 mph N/A   Mostly Cloudy
2:16 AM 33.8 °F 21.0 °F 28.4 °F 81% 29.93 in 3.0 mi NNW 25.3 mph 32.2 mph N/A   Mostly Cloudy
2:36 AM 33.8 °F 20.8 °F 28.4 °F 81% 29.93 in 5.0 mi North 26.5 mph 32.2 mph N/A   Overcast
2:56 AM 33.8 °F 20.5 °F 28.4 °F 81% 29.93 in 9.0 mi North 27.6 mph 35.7 mph 0.01 in   Mostly Cloudy
3:16 AM 35.6 °F 22.7 °F 28.4 °F 75% 29.94 in 10.0 mi NNW 28.8 mph 35.7 mph N/A   Overcast
3:36 AM 35.6 °F 24.0 °F 26.6 °F 70% 29.95 in 10.0 mi North 23.0 mph 35.7 mph N/A   Overcast
3:56 AM 35.6 °F 23.2 °F 26.6 °F 70% 29.95 in 10.0 mi NNW 26.5 mph 34.5 mph N/A   Mostly Cloudy
4:16 AM 35.6 °F 23.4 °F 26.6 °F 70% 29.95 in 10.0 mi North 25.3 mph 33.4 mph N/A   Scattered Clouds
4:36 AM 35.6 °F 23.7 °F 26.6 °F 70% 29.96 in 10.0 mi North 24.2 mph 31.1 mph N/A   Mostly Cloudy
4:56 AM 35.6 °F 23.2 °F 28.4 °F 75% 29.97 in 9.0 mi NNW 26.5 mph 40.3 mph N/A   Mostly Cloudy
5:16 AM 35.6 °F 24.2 °F 28.4 °F 75% 29.98 in 10.0 mi NNW 21.9 mph 34.5 mph N/A   Mostly Cloudy
5:36 AM 35.6 °F 24.0 °F 28.4 °F 75% 29.98 in 10.0 mi North 23.0 mph 36.8 mph N/A   Mostly Cloudy
5:56 AM 35.6 °F 23.0 °F 28.4 °F 75% 29.99 in 9.0 mi North 27.6 mph 33.4 mph N/A   Mostly Cloudy
6:16 AM 35.6 °F 24.2 °F 28.4 °F 75% 29.99 in 10.0 mi NNW 21.9 mph 31.1 mph N/A   Mostly Cloudy
6:36 AM 35.6 °F 23.7 °F 28.4 °F 75% 29.99 in 10.0 mi North 24.2 mph 32.2 mph N/A   Mostly Cloudy
6:56 AM 35.6 °F 24.8 °F 30.2 °F 81% 30.01 in 10.0 mi NNE 19.6 mph 31.1 mph N/A   Overcast
7:16 AM 35.6 °F 26.2 °F 28.4 °F 75% 30.02 in 10.0 mi NNE 15.0 mph 24.2 mph N/A   Mostly Cloudy
7:36 AM 33.8 °F 23.9 °F 28.4 °F 81% 30.03 in 10.0 mi NNE 15.0 mph 23.0 mph N/A   Scattered Clouds
7:56 AM 33.8 °F 26.4 °F 28.4 °F 81% 30.05 in 10.0 mi NNE 9.2 mph - N/A   Mostly Cloudy
8:16 AM 33.8 °F 27.0 °F 26.6 °F 75% 30.06 in 10.0 mi NNE 8.1 mph - N/A   Mostly Cloudy
8:36 AM 33.8 °F 27.7 °F 28.4 °F 81% 30.07 in 10.0 mi NNE 6.9 mph - N/A   Overcast
8:56 AM 33.8 °F 25.8 °F 26.6 °F 75% 30.09 in 10.0 mi NNE 10.4 mph - N/A   Overcast
9:36 AM 33.8 °F 26.4 °F 26.6 °F 75% 30.12 in 10.0 mi NNE 9.2 mph - N/A   Overcast
9:56 AM 33.8 °F 27.0 °F 26.6 °F 75% 30.13 in 10.0 mi NNE 8.1 mph - N/A   Overcast
10:16 AM 33.8 °F 28.6 °F 26.6 °F 75% 30.14 in 10.0 mi North 5.8 mph - N/A   Mostly Cloudy
10:36 AM 33.8 °F 27.7 °F 26.6 °F 75% 30.15 in 10.0 mi NNE 6.9 mph - N/A   Mostly Cloudy
10:56 AM 33.8 °F 27.7 °F 26.6 °F 75% 30.15 in 10.0 mi NE 6.9 mph - N/A   Overcast
11:16 AM 33.8 °F 26.4 °F 26.6 °F 75% 30.15 in 10.0 mi NE 9.2 mph - N/A   Overcast
11:36 AM 33.8 °F 29.6 °F 26.6 °F 75% 30.15 in 10.0 mi NNE 4.6 mph - N/A   Overcast
11:56 AM 33.8 °F 27.0 °F 26.6 °F 75% 30.15 in 10.0 mi NNE 8.1 mph - N/A   Overcast
12:16 PM 33.8 °F 27.0 °F 26.6 °F 75% 30.14 in 10.0 mi NNE 8.1 mph - N/A   Overcast
12:36 PM 33.8 °F 27.0 °F 26.6 °F 75% 30.14 in 10.0 mi North 8.1 mph - N/A   Overcast
12:56 PM 33.8 °F 27.7 °F 24.8 °F 70% 30.14 in 10.0 mi North 6.9 mph - N/A   Overcast
1:16 PM 33.8 °F 27.0 °F 24.8 °F 70% 30.14 in 10.0 mi North 8.1 mph - N/A   Overcast
1:36 PM 33.8 °F 27.0 °F 24.8 °F 70% 30.14 in 10.0 mi North 8.1 mph - N/A   Overcast
1:56 PM 35.6 °F 28.6 °F 26.6 °F 70% 30.13 in 10.0 mi North 9.2 mph - N/A   Overcast
2:16 PM 33.8 °F 27.0 °F 26.6 °F 75% 30.14 in 9.0 mi North 8.1 mph - N/A   Overcast
2:36 PM 33.8 °F 26.4 °F 26.6 °F 75% 30.14 in 10.0 mi North 9.2 mph - N/A   Overcast
2:56 PM 33.8 °F 25.8 °F 26.6 °F 75% 30.14 in 6.0 mi North 10.4 mph - N/A   Overcast
3:16 PM 33.8 °F 26.4 °F 26.6 °F 75% 30.14 in 8.0 mi North 9.2 mph - N/A   Overcast
3:36 PM 33.8 °F 26.4 °F 26.6 °F 75% 30.14 in 7.0 mi North 9.2 mph - N/A   Overcast
3:56 PM 33.8 °F 27.0 °F 26.6 °F 75% 30.13 in 7.0 mi North 8.1 mph - N/A   Overcast
4:16 PM 33.8 °F 27.0 °F 26.6 °F 75% 30.13 in 5.0 mi North 8.1 mph - N/A   Overcast
4:36 PM 32.0 °F 24.2 °F 26.6 °F 80% 30.13 in 4.0 mi North 9.2 mph - N/A   Overcast
4:56 PM 32.0 °F 23.6 °F 26.6 °F 80% 30.12 in 3.0 mi North 10.4 mph - N/A   Overcast
5:16 PM 32.0 °F 24.8 °F 26.6 °F 80% 30.12 in 3.0 mi North 8.1 mph - N/A   Overcast
5:36 PM 32.0 °F 24.2 °F 26.6 °F 80% 30.12 in 5.0 mi North 9.2 mph - N/A   Overcast
5:56 PM 32.0 °F 24.2 °F 26.6 °F 80% 30.13 in 5.0 mi North 9.2 mph - N/A   Overcast
6:16 PM 30.2 °F 21.3 °F 26.6 °F 86% 30.12 in 3.0 mi North 10.4 mph - N/A   Overcast
6:36 PM 30.2 °F 21.3 °F 26.6 °F 86% 30.12 in 4.0 mi North 10.4 mph - N/A   Overcast
6:56 PM 30.2 °F 22.6 °F 26.6 °F 86% 30.12 in 5.0 mi North 8.1 mph - N/A   Overcast
7:16 PM 30.2 °F 22.6 °F 26.6 °F 86% 30.12 in 5.0 mi North 8.1 mph - N/A   Overcast
7:36 PM 30.2 °F 24.3 °F 26.6 °F 86% 30.12 in 5.0 mi NNE 5.8 mph - N/A   Overcast
7:56 PM 30.2 °F 25.4 °F 26.6 °F 86% 30.12 in 5.0 mi NNE 4.6 mph - N/A   Overcast
8:16 PM 30.2 °F 26.7 °F 26.6 °F 86% 30.12 in 9.0 mi NE 3.5 mph - N/A   Overcast
8:36 PM 30.2 °F 26.7 °F 26.6 °F 86% 30.12 in 4.0 mi North 3.5 mph - N/A   Overcast
8:56 PM 30.2 °F 24.3 °F 26.6 °F 86% 30.12 in 3.0 mi NNE 5.8 mph - N/A   Overcast
9:16 PM 30.2 °F 23.4 °F 26.6 °F 86% 30.12 in 3.0 mi North 6.9 mph - N/A   Overcast
9:36 PM 30.2 °F 26.7 °F 26.6 °F 86% 30.11 in 3.0 mi NNE 3.5 mph - N/A   Overcast
9:56 PM 30.2 °F - 24.8 °F 80% 30.11 in 4.0 mi Calm Calm - N/A   Overcast
10:16 PM 30.2 °F - 26.6 °F 86% 30.10 in 6.0 mi Calm Calm - N/A   Overcast
10:36 PM 30.2 °F - 26.6 °F 86% 30.10 in 6.0 mi Calm Calm - N/A   Overcast
10:56 PM 30.2 °F 25.4 °F 26.6 °F 86% 30.09 in 8.0 mi NE 4.6 mph - N/A   Overcast
11:16 PM 30.2 °F - 24.8 °F 80% 30.08 in 10.0 mi Calm Calm - N/A   Overcast
11:36 PM 30.2 °F - 24.8 °F 80% 30.08 in 5.0 mi Calm Calm - N/A   Overcast
11:56 PM 28.4 °F - 24.8 °F 86% 30.07 in 9.0 mi Calm Calm - N/A   Overcast